Theta_e
341 341 340 340 341 342 343 344 346 346 346 346 346 345 344 344 345 348 348 347 346 347 347 347 347 346 345 346 345 345 346 346 346 344 342 339 337 335 333 333 334 337 340 341 337 329 327 329 328 328 328 327 327 327 329 332 334 337 342 344 343 340 338 334 330 326 323 321 320 319 319 319 318 318
341 342 341 340 340 341 342 343 344 345 345 345 345 345 345 345 345 346 347 347 346 345 345 346 346 344 345 346 346 346 347 346 345 343 340 340 339 336 334 334 334 336 340 341 336 329 329 330 331 332 333 332 331 330 330 330 332 334 338 343 345 342 340 339 336 332 328 323 321 320 319 318 318 318
342 342 342 340 340 340 340 341 343 344 344 344 344 344 344 344 345 344 345 347 346 343 343 345 344 343 343 344 345 345 345 344 343 341 340 340 339 336 334 334 335 336 339 341 337 330 330 332 333 334 335 336 335 335 334 333 332 333 335 340 345 344 341 340 339 338 335 329 324 321 320 319 319 318
342 342 341 341 340 339 339 340 341 342 342 342 342 341 342 343 344 344 343 345 344 341 341 342 343 344 343 342 343 343 343 342 342 341 340 339 338 336 335 334 334 336 339 341 338 332 331 333 334 335 337 338 338 337 337 336 334 335 335 337 342 345 343 341 340 339 338 336 331 324 321 320 320 319
343 343 342 341 341 340 339 339 339 341 341 341 341 341 342 343 343 343 343 343 341 339 339 340 341 343 343 342 343 342 342 343 342 340 339 338 337 336 335 334 334 335 338 341 340 336 334 335 335 337 338 339 340 340 339 338 336 335 336 336 339 344 344 342 340 340 339 339 337 332 326 322 320 320
344 344 343 342 343 343 343 342 342 343 344 344 345 345 344 343 343 343 342 342 342 340 340 341 341 342 342 342 343 343 344 343 341 339 338 337 337 336 335 334 334 334 336 339 341 340 339 339 338 338 340 340 341 341 341 341 339 337 336 336 338 341 344 344 342 340 339 338 338 338 334 328 323 321
344 344 344 344 345 346 346 346 346 347 347 347 347 346 345 343 343 344 345 344 344 344 342 341 342 342 341 342 343 344 343 341 339 338 337 337 337 337 337 336 336 336 335 336 339 341 341 341 340 339 340 341 342 342 342 342 342 340 338 337 336 339 343 345 344 342 341 339 339 338 338 336 331 325
344 344 344 345 345 345 346 347 346 346 346 347 346 345 345 345 345 347 348 348 348 348 345 342 342 342 341 342 342 342 341 340 338 338 337 336 337 337 336 336 337 336 335 335 336 337 339 339 339 338 338 339 340 340 341 342 343 343 341 339 337 337 340 344 345 344 342 341 340 339 339 338 337 334
344 344 344 344 345 345 345 345 345 345 345 345 344 344 344 345 346 347 348 348 348 348 346 343 342 342 342 342 342 342 342 340 339 339 338 336 336 335 334 334 335 333 332 333 333 333 335 335 336 337 336 337 338 338 338 339 340 340 340 339 338 337 337 340 344 346 345 344 343 341 340 339 339 338
344 343 344 343 343 344 344 344 344 345 345 345 345 344 344 344 346 346 346 346 346 347 346 345 344 344 344 342 341 341 342 341 340 339 338 336 336 336 334 333 333 331 330 330 330 330 330 331 332 332 332 333 334 335 334 334 334 334 335 337 337 336 336 337 342 345 346 345 344 343 341 340 340 338
343 342 342 342 342 342 342 343 343 344 344 344 344 342 340 340 342 343 344 346 346 347 347 347 346 345 344 343 341 341 340 340 340 340 338 336 335 336 335 333 331 329 328 327 327 327 327 327 328 328 329 330 331 332 331 331 331 332 333 334 334 333 333 334 337 342 345 345 345 344 342 340 340 339
343 342 342 341 341 341 341 341 342 343 343 342 340 339 338 337 339 342 344 346 347 347 347 346 345 344 343 341 340 339 339 338 338 338 338 337 336 335 333 331 329 327 326 326 326 326 326 327 327 327 327 329 331 332 332 333 334 335 335 334 333 332 331 331 333 338 342 343 343 343 343 340 338 338
343 342 341 340 340 340 339 339 340 341 343 342 340 339 339 338 340 342 344 345 345 345 345 344 343 341 339 338 337 336 335 336 336 336 337 337 337 335 332 328 327 328 326 325 326 326 326 326 326 326 326 328 332 334 335 337 338 338 337 336 335 333 332 331 331 333 337 339 340 342 342 340 337 336
342 342 342 341 340 340 339 338 339 339 340 341 340 340 341 340 341 341 342 343 343 342 342 340 340 337 335 335 336 334 333 336 337 338 339 340 340 340 336 328 325 325 327 328 326 325 327 326 325 326 326 328 331 334 336 338 339 339 339 337 336 334 333 332 331 332 334 336 337 338 340 340 338 335
344 344 344 344 343 342 342 341 341 340 340 339 339 339 340 341 342 342 341 341 341 341 340 339 338 338 335 333 334 334 336 338 339 340 342 342 343 345 344 338 330 326 328 332 330 325 326 327 326 326 327 328 330 332 334 336 338 340 340 337 335 334 334 334 332 332 333 335 335 336 337 337 337 336
346 345 345 346 345 345 345 345 345 344 343 342 340 339 338 339 340 341 342 342 341 341 341 340 339 339 338 336 335 336 338 339 340 342 343 343 344 344 346 346 342 335 333 337 338 332 327 328 329 327 327 328 329 330 331 334 337 340 341 339 337 335 335 335 334 333 333 334 336 336 336 336 336 336
346 346 345 346 346 346 346 347 346 346 345 344 343 342 341 340 341 342 343 342 342 342 342 341 340 340 340 340 339 339 340 341 341 342 342 343 343 343 343 345 346 343 341 343 345 341 333 332 333 331 328 330 331 330 331 332 335 338 341 341 340 339 338 337 336 334 334 335 336 337 337 336 336 336
344 344 345 345 345 345 346 346 346 346 345 344 344 343 343 343 343 343 343 344 343 343 343 343 342 341 341 341 341 341 341 342 342 343 343 342 343 343 343 344 345 346 345 346 348 347 341 337 338 334 332 333 333 332 332 332 333 336 338 340 341 341 341 340 338 336 335 335 337 338 338 337 336 336
343 343 344 344 344 345 345 345 345 345 345 345 344 344 344 344 344 344 344 345 345 345 345 345 345 345 344 344 343 343 342 343 342 343 343 343 343 344 344 345 346 346 346 346 347 348 346 343 342 339 337 338 337 334 334 334 334 335 336 337 339 341 341 341 340 339 337 336 336 336 337 337 337 337
344 343 343 344 344 344 345 345 345 345 346 345 345 345 345 345 345 345 345 346 346 347 347 347 347 347 347 347 347 347 346 345 344 344 343 343 344 345 345 346 346 347 348 348 348 348 348 347 346 343 342 343 340 337 336 336 335 335 335 335 337 338 340 341 341 340 339 338 338 337 336 336 337 338
346 345 345 345 345 345 345 345 345 346 346 346 346 345 345 345 345 346 346 347 347 347 347 347 347 347 348 348 349 349 349 348 347 346 345 345 345 345 346 346 347 348 350 350 349 348 347 348 349 348 346 345 343 339 337 337 337 337 337 337 337 337 338 339 340 341 340 339 339 338 338 338 339 339
347 347 347 346 346 347 346 346 346 347 347 347 347 346 346 347 347 347 348 348 348 347 347 346 346 347 347 348 348 348 348 349 348 348 347 346 346 346 346 347 348 350 351 351 351 351 349 349 351 352 351 349 346 344 342 340 340 340 340 340 339 338 338 338 338 340 341 341 341 339 339 339 340 341
348 348 348 347 348 347 347 347 347 348 347 347 347 347 348 348 348 349 349 348 348 348 348 348 347 348 347 347 347 347 347 348 349 349 349 348 347 347 348 349 350 351 352 352 352 352 352 352 353 354 354 353 351 348 347 346 344 344 345 344 343 341 341 341 340 340 340 342 343 343 342 340 340 340
348 348 348 348 348 348 348 348 348 348 348 348 349 349 349 349 349 350 349 349 349 349 349 349 348 348 348 348 348 347 347 348 349 349 350 350 349 350 350 350 351 352 352 352 353 353 353 354 354 354 354 354 353 351 350 350 349 347 347 346 346 345 344 344 343 343 342 341 342 343 344 344 342 341
349 349 349 349 348 349 348 349 349 349 349 349 349 349 349 349 349 349 349 348 349 349 349 349 349 349 349 349 349 349 349 349 349 350 351 351 351 351 352 352 352 352 352 352 353 354 354 354 355 354 354 355 354 354 353 352 351 350 349 347 346 346 346 346 346 345 344 344 343 343 344 345 345 345
348 348 348 347 347 347 347 347 347 347 347 347 348 348 348 347 348 348 348 349 349 349 350 350 350 350 350 350 351 351 350 350 350 351 352 352 352 352 352 352 352 352 352 353 353 353 353 354 354 354 355 355 354 355 355 354 352 351 352 351 349 348 347 347 347 346 346 346 346 344 344 344 345 346
345 345 344 343 342 342 343 343 343 343 343 343 341 340 338 337 338 340 342 344 346 348 349 349 350 350 350 349 348 347 347 347 347 348 349 350 350 350 351 351 351 351 352 352 352 353 353 353 353 353 354 354 354 354 355 354 353 353 352 353 353 353 351 350 349 349 348 348 347 346 345 344 343 344
337 335 333 332 332 333 333 333 333 333 332 331 328 325 322 321 323 324 327 329 331 334 336 338 338 337 336 334 334 334 334 335 335 336 337 339 342 345 347 348 348 348 349 350 351 352 352 352 352 353 353 353 353 354 354 353 353 353 353 353 352 353 353 353 352 350 349 348 348 347 347 347 345 344
327 325 323 322 322 323 324 324 325 324 322 320 319 317 316 316 316 317 318 320 321 322 323 323 323 323 323 323 322 322 322 323 323 324 326 328 331 335 339 341 342 343 347 349 350 351 352 352 352 353 352 353 353 354 353 353 353 353 353 353 353 352 352 352 352 352 350 348 348 349 349 349 349 348
322 321 320 319 318 317 317 318 319 319 317 316 315 314 314 314 314 315 316 318 319 319 320 322 323 324 324 324 322 322 323 324 325 327 331 333 334 335 336 336 337 341 348 351 351 351 351 351 351 351 351 352 352 353 352 353 353 353 353 353 353 353 352 352 352 353 352 349 349 351 351 351 350 349
322 319 318 317 316 315 314 314 314 314 315 314 314 314 315 314 314 315 316 318 320 324 328 331 332 333 332 332 333 334 336 337 338 339 340 341 342 341 341 339 340 343 347 350 350 350 349 349 349 349 350 351 352 352 352 352 353 353 353 353 353 353 353 353 353 353 353 352 352 352 352 352 351 350
321 318 315 313 312 312 312 312 312 313 314 315 315 315 314 315 316 318 320 325 331 334 335 336 337 337 337 338 339 340 340 341 342 342 343 343 343 344 344 344 344 345 346 347 348 348 347 347 346 347 349 351 351 352 352 352 352 352 353 353 353 352 352 353 354 354 354 354 354 353 352 352 351 350
314 312 310 310 310 310 311 312 314 316 316 316 318 319 318 320 324 327 330 333 335 335 335 336 337 338 338 339 340 341 341 342 342 342 342 342 342 343 343 344 345 345 345 346 347 346 346 345 345 345 347 348 349 350 351 352 352 351 351 352 352 352 352 352 353 354 354 355 355 354 353 352 352 351
308 307 308 309 309 311 313 316 319 321 322 323 326 327 327 328 331 332 333 333 333 333 334 335 336 336 337 338 339 339 340 340 341 342 343 343 342 342 343 344 344 345 345 346 346 346 345 344 345 346 347 348 347 347 348 349 350 350 350 350 350 351 351 352 352 353 354 354 355 355 354 353 352 352
307 309 310 312 314 317 320 323 325 326 328 329 330 331 331 332 333 332 331 329 329 330 332 333 334 335 336 336 336 337 337 338 340 341 342 342 342 341 341 342 343 344 344 345 344 345 345 345 345 345 346 346 347 346 346 348 349 350 351 351 350 351 352 352 352 352 354 354 353 354 354 353 352 352
311 312 314 317 320 324 326 327 327 328 329 329 330 331 331 332 331 330 328 327 326 327 327 328 328 329 331 332 334 335 336 337 338 338 338 338 339 339 338 339 340 341 342 342 342 343 344 345 346 346 346 347 347 348 348 349 350 350 350 350 350 351 352 351 351 351 353 353 352 352 353 353 352 351
314 316 318 320 323 325 326 326 327 327 328 329 330 331 331 330 329 329 327 326 326 326 326 325 325 325 325 326 327 329 330 332 334 335 335 335 336 336 336 336 337 338 338 339 340 340 341 342 344 345 346 347 348 348 348 349 349 348 348 348 349 350 350 350 350 350 350 351 351 351 352 353 353 353
315 317 319 321 323 324 325 326 326 326 327 328 329 329 328 327 327 327 326 326 325 325 325 325 325 325 324 324 324 323 324 325 326 327 328 330 331 332 333 333 334 335 336 337 338 338 338 338 339 340 340 342 343 343 342 343 346 347 346 346 346 347 347 347 348 348 348 349 350 351 351 351 352 353
316 317 319 321 323 323 323 324 325 326 327 327 327 326 326 326 325 325 325 324 323 322 321 320 320 321 322 322 322 322 322 322 322 322 323 323 324 324 325 326 327 329 331 333 335 336 336 336 336 335 334 334 334 334 333 334 339 343 343 343 344 344 343 344 345 346 346 348 350 351 351 350 351 351
318 319 319 320 321 321 321 322 323 324 325 325 325 324 324 324 323 322 322 321 320 319 319 318 318 319 320 320 320 320 320 321 321 322 322 322 321 321 321 320 320 321 322 324 327 329 330 330 330 331 330 329 330 331 330 330 333 337 338 337 338 337 336 336 339 342 343 344 345 347 349 350 351 351
318 318 318 317 318 318 318 318 319 320 320 320 321 320 321 321 320 319 319 319 318 318 318 318 318 318 318 318 318 318 318 319 320 320 321 321 321 321 320 319 319 319 318 318 319 320 321 321 321 322 324 325 326 329 328 326 327 329 329 329 329 329 328 329 331 335 338 339 339 340 344 348 350 350
316 316 316 316 316 316 316 317 317 317 317 317 318 318 317 317 317 316 316 316 316 316 316 316 316 316 316 316 317 318 318 318 318 319 319 320 320 321 321 320 319 318 317 317 317 317 317 318 317 318 318 318 319 320 320 319 319 320 321 322 323 323 324 324 325 327 330 331 332 333 337 343 347 349
315 315 315 314 315 315 315 315 315 315 315 315 315 315 315 315 314 314 314 314 314 314 314 315 315 315 315 316 316 317 317 317 317 317 317 318 318 319 320 320 320 319 318 317 317 317 317 317 317 316 316 316 316 316 317 317 316 317 318 318 317 317 318 320 321 321 322 324 325 325 328 334 340 343
313 313 313 313 313 313 313 313 313 313 313 313 313 313 313 313 313 313 313 313 313 313 314 314 314 314 314 315 315 315 316 316 317 317 317 317 317 318 318 318 318 318 318 317 317 317 317 317 316 316 316 315 315 316 316 315 316 316 317 316 316 315 315 315 316 317 318 320 322 322 321 324 329 332
311 311 311 312 312 312 312 312 312 313 313 312 312 312 312 312 312 312 312 312 312 312 312 312 312 312 312 313 313 314 314 314 315 315 316 316 316 316 316 317 317 316 316 316 316 316 316 316 316 315 315 314 315 315 316 316 316 317 316 314 314 314 314 314 315 315 315 316 319 320 319 319 320 322
Wind_Speed
8 8 7 7 7 8 8 7 6 5 4 4 4 4 5 6 7 7 7 8 7 7 8 8 9 9 10 10 11 12 13 14 16 17 18 18 19 19 16 14 13 14 13 12 11 10 11 12 13 14 14 15 15 15 15 15 14 13 14 15 16 15 14 14 13 13 11 8 6 4 3 3 2 1
8 8 8 7 7 8 8 9 8 7 7 6 6 7 7 8 8 8 9 10 9 9 10 8 9 10 10 10 11 12 13 15 16 17 18 18 20 19 15 13 12 12 12 11 9 9 9 10 12 13 13 14 14 15 15 15 15 14 12 13 14 14 14 14 13 13 12 10 7 5 4 3 2 1
8 8 8 8 8 8 9 10 10 10 9 9 9 10 10 10 11 11 11 11 11 12 12 10 9 10 11 11 11 12 13 15 16 16 17 18 19 19 15 12 11 11 11 10 8 7 8 9 10 11 12 13 14 14 14 14 14 14 13 11 11 12 13 12 13 12 12 11 9 6 4 3 2 2
8 8 8 8 9 9 9 10 11 12 12 12 12 12 12 12 12 12 13 13 14 15 13 10 9 9 10 10 11 12 12 13 14 14 15 17 18 17 14 11 11 11 11 10 8 7 7 8 9 11 12 12 13 13 14 14 13 13 13 12 10 10 11 11 11 11 11 10 9 8 6 4 2 2
7 7 7 7 8 8 9 10 11 12 12 13 13 13 13 13 13 13 14 15 16 16 13 11 10 10 10 10 10 11 11 12 13 13 13 15 16 15 13 11 11 12 12 11 10 9 9 9 10 11 12 12 12 13 13 13 13 12 13 12 10 9 9 10 10 10 10 10 9 9 7 5 3 2
7 7 7 6 7 7 7 8 8 9 10 10 11 11 11 11 11 12 12 14 15 16 15 13 12 11 11 11 11 11 11 12 12 12 12 12 13 13 12 12 13 13 12 12 11 11 11 11 11 11 12 12 13 13 13 13 13 13 12 12 11 10 9 9 9 9 9 9 9 9 8 7 5 3
7 7 7 6 7 7 7 6 7 7 8 8 8 9 9 9 9 9 10 11 13 14 15 14 13 13 13 12 12 12 12 12 12 11 11 10 11 11 12 13 14 14 13 12 12 12 12 12 12 12 13 13 13 13 13 13 13 13 12 12 12 11 9 9 8 8 8 8 8 9 8 8 7 5
7 8 7 6 7 7 7 7 8 8 8 9 9 9 9 9 9 8 9 10 11 12 14 14 12 12 12 11 11 11 11 10 10 10 10 9 9 10 11 12 13 14 14 13 13 13 13 13 13 14 14 14 14 14 15 15 15 14 14 13 12 12 11 10 9 8 8 7 7 8 8 8 7 6
7 7 7 6 7 8 8 8 8 9 9 9 9 9 9 9 9 9 10 11 11 12 13 13 12 10 10 10 9 10 11 11 10 10 10 9 9 9 9 10 12 13 14 14 14 15 14 15 15 16 16 17 17 17 17 17 17 16 16 15 14 13 12 11 10 9 8 8 7 7 8 8 8 7
8 7 7 7 7 8 8 9 9 9 9 9 9 9 9 9 10 10 10 10 11 11 11 12 11 11 11 10 10 10 12 13 13 13 13 11 11 11 11 10 11 13 14 14 15 15 16 17 17 18 18 19 19 19 20 20 19 18 17 16 15 14 13 12 12 11 10 9 9 8 7 7 8 8
9 8 8 8 8 8 9 9 9 9 9 10 9 9 9 9 10 10 9 9 9 10 10 11 12 13 13 13 12 12 13 13 14 15 15 14 14 14 15 14 14 14 15 16 16 16 17 18 19 19 19 20 20 20 20 19 18 17 16 16 16 16 15 14 13 13 12 11 10 10 9 8 7 7
10 10 9 8 8 8 8 8 9 9 9 10 9 9 9 9 10 10 9 9 9 10 12 13 13 14 15 14 14 14 14 15 16 16 17 17 17 17 18 17 17 17 17 17 17 17 18 19 19 19 19 19 19 18 17 16 15 15 16 17 18 18 18 16 15 14 14 13 12 12 11 10 8 8
10 10 9 9 8 8 8 8 8 9 9 10 10 9 8 9 9 10 11 11 12 13 14 15 15 16 17 17 16 17 17 17 17 17 18 18 18 19 19 19 19 19 18 18 18 18 18 19 19 19 19 18 17 16 14 13 14 14 16 17 18 19 20 19 17 16 15 14 13 13 13 12 10 9
9 9 9 9 9 9 9 9 9 10 10 11 11 10 10 10 10 11 12 13 14 15 16 17 17 18 19 18 18 18 18 17 17 16 17 18 19 20 21 21 20 19 19 20 21 20 18 19 19 20 19 18 16 15 13 13 15 16 17 18 18 18 19 19 19 18 17 16 14 14 14 13 12 11
9 9 9 9 9 9 9 10 10 10 11 11 12 12 12 12 13 13 14 15 15 16 17 18 18 19 21 20 19 19 18 18 17 17 17 19 20 21 22 23 22 22 22 23 24 23 21 20 21 20 19 18 17 16 15 14 16 17 18 18 17 16 16 17 18 18 18 17 16 15 15 15 14 13
10 10 10 10 10 10 9 9 10 10 10 11 12 13 14 14 14 14 15 16 17 17 19 20 20 21 22 22 20 19 19 19 19 19 19 20 21 22 24 25 25 24 25 26 27 26 23 23 23 22 20 20 19 19 18 16 16 16 16 16 16 16 16 16 17 18 18 18 17 16 16 16 16 15
12 12 12 12 12 11 11 11 11 12 12 13 13 14 15 15 15 15 15 16 17 18 20 22 22 22 22 23 23 20 20 21 22 22 23 23 24 25 26 27 27 26 26 29 30 29 26 24 25 24 22 22 22 21 20 18 17 15 15 15 16 16 16 16 16 17 18 18 18 18 18 18 17 16
14 14 14 15 15 15 14 15 15 15 15 15 15 15 16 16 16 16 17 18 19 20 21 23 25 24 24 25 25 23 22 23 24 25 26 26 27 29 29 30 29 27 26 27 30 32 29 27 28 28 26 25 24 23 22 20 19 18 17 16 17 17 17 17 16 16 17 18 19 19 19 19 18 18
16 16 16 17 17 17 18 18 18 18 18 17 17 17 17 18 18 19 19 20 21 22 24 25 26 26 26 27 27 27 26 27 27 27 29 29 30 32 32 32 32 30 28 28 29 32 31 29 30 31 29 28 27 25 23 22 20 19 19 19 19 18 18 18 16 16 16 17 19 20 20 20 19 19
18 18 18 18 19 19 19 20 19 19 19 19 18 19 20 21 22 22 22 22 23 23 25 26 27 27 27 27 28 28 28 29 30 30 31 32 32 33 34 35 34 32 30 29 30 32 32 31 31 32 30 29 29 27 25 23 22 21 21 21 21 20 20 19 18 16 16 17 18 19 19 19 19 20
19 19 19 19 19 20 20 20 20 20 20 21 22 24 25 26 26 26 26 25 24 24 24 24 25 25 25 25 26 26 26 28 29 30 32 33 32 32 34 35 35 32 30 30 31 32 32 31 31 31 31 31 31 30 28 26 24 23 23 23 22 22 22 22 20 19 18 18 19 20 20 20 20 21
19 19 19 20 20 20 21 21 21 21 22 23 25 26 27 28 28 27 26 26 26 25 24 25 25 25 25 25 25 25 24 25 26 29 31 31 30 31 33 33 33 32 31 29 28 28 29 29 28 28 29 31 31 31 30 28 25 24 24 23 23 23 23 24 24 23 22 20 20 21 21 22 23 24
20 20 21 21 22 22 23 23 23 24 25 25 26 27 27 28 27 25 25 26 26 25 25 25 25 26 26 26 26 26 25 24 25 26 28 28 28 30 30 29 28 30 30 26 24 25 27 27 25 24 24 27 29 30 30 30 28 26 25 24 24 24 24 24 24 25 25 24 23 22 22 23 24 26
20 20 21 22 23 23 24 24 25 25 26 26 26 26 25 25 24 24 25 25 25 25 25 25 25 26 26 26 26 26 26 24 24 24 25 25 26 27 28 27 26 29 29 26 24 25 25 23 22 21 21 23 26 29 31 31 31 30 29 27 27 26 25 25 24 24 25 26 26 25 24 24 25 26
19 19 20 21 22 22 22 23 23 23 24 23 23 22 22 22 22 23 24 24 24 25 25 26 26 26 25 24 24 24 24 24 24 23 22 23 23 25 26 26 27 28 28 25 24 26 26 23 21 21 21 22 25 26 28 31 33 33 32 30 30 30 29 28 27 26 24 25 26 27 27 27 26 26
17 17 17 17 17 18 18 19 19 18 18 18 18 18 18 19 20 21 22 22 23 24 25 26 26 26 25 24 23 23 23 23 23 21 18 18 20 21 23 24 25 27 27 25 24 26 27 26 24 23 22 23 25 26 26 30 34 34 31 29 29 31 32 31 30 29 27 26 26 26 28 29 29 29
15 15 14 14 14 14 14 14 13 13 13 14 15 16 16 17 18 19 20 21 22 23 24 25 25 25 25 24 24 24 23 24 24 23 22 21 22 24 24 24 25 27 28 26 26 28 29 29 30 28 26 27 30 30 28 29 32 33 31 28 26 26 27 29 30 30 29 29 28 27 27 30 31 32
13 12 12 12 11 11 12 12 11 12 12 14 15 17 18 18 18 19 20 21 21 22 22 23 23 23 24 24 24 24 24 24 25 26 26 26 26 27 27 27 27 28 29 29 28 27 28 30 32 31 30 31 32 31 30 30 31 30 29 28 26 24 23 24 28 31 31 30 30 30 29 29 31 33
11 11 11 12 12 12 12 12 12 12 13 14 16 18 19 19 19 20 21 21 21 21 21 22 22 22 22 22 23 23 23 23 24 25 26 26 26 26 27 28 28 27 26 26 26 23 23 24 26 26 28 29 29 28 29 30 29 28 27 26 26 27 26 27 29 32 32 31 29 30 31 30 30 32
12 13 13 14 15 15 16 16 15 14 14 17 19 20 20 20 20 20 20 20 21 21 21 20 20 20 19 20 21 22 21 21 21 22 22 22 22 22 24 26 27 25 21 20 22 21 20 20 21 22 23 25 26 27 29 28 27 28 29 27 26 28 29 27 27 29 32 31 28 28 30 30 31 32
16 16 17 17 18 18 18 19 19 18 18 19 20 20 20 20 20 20 20 19 19 18 17 16 16 16 17 17 18 17 16 16 16 16 16 17 18 19 21 22 24 22 19 18 20 21 20 19 19 20 21 23 24 26 27 27 27 29 30 28 27 28 29 28 26 26 27 29 28 27 28 28 28 29
20 20 20 20 20 19 19 19 19 19 19 19 19 19 19 19 18 18 17 15 13 13 13 13 14 14 14 15 15 14 14 14 15 15 15 16 17 18 18 19 21 20 19 19 20 20 21 20 19 20 21 22 23 25 25 27 28 29 30 29 28 28 28 28 27 24 22 25 28 27 28 28 27 27
21 21 21 20 19 18 17 16 16 16 16 15 15 15 15 14 12 12 10 9 9 10 11 12 12 12 13 13 13 13 13 13 13 14 15 16 17 18 18 18 19 19 20 20 20 20 21 22 21 22 22 23 24 24 25 27 28 29 30 31 29 28 27 26 26 24 21 23 26 27 28 29 28 27
20 19 18 17 17 15 14 13 11 11 10 9 8 9 8 8 7 7 7 8 8 9 9 10 10 11 13 13 14 14 14 14 13 12 12 12 14 16 16 17 18 18 19 20 21 21 22 23 22 22 23 24 25 25 25 26 27 27 27 28 28 26 25 24 24 24 22 22 23 26 28 29 27 26
17 16 15 15 13 11 9 8 7 7 6 6 6 6 6 6 6 7 8 10 10 10 10 11 12 13 14 15 16 17 17 17 16 14 13 13 14 15 15 16 18 17 17 18 20 21 23 24 23 23 23 24 25 27 26 24 24 24 24 26 25 24 24 24 24 24 23 23 24 26 29 31 30 27
15 15 14 12 9 7 6 6 6 6 6 7 7 6 6 6 7 8 10 11 12 12 13 14 15 16 17 18 19 20 20 21 21 20 20 20 20 20 20 20 20 20 19 19 19 19 20 23 23 24 24 24 25 28 27 23 22 22 23 25 25 23 23 26 27 27 26 26 28 28 29 32 33 29
13 13 11 9 7 6 6 7 7 7 7 6 7 7 7 7 9 10 12 13 14 15 15 16 17 18 19 20 21 23 24 25 26 26 26 26 26 27 27 26 25 25 25 25 25 24 24 23 22 23 24 24 24 26 27 26 24 23 23 25 27 26 25 28 31 32 30 29 30 31 30 32 33 29
11 10 9 7 6 7 7 8 8 8 8 9 10 10 9 9 11 13 16 17 18 19 20 21 22 23 23 23 24 25 26 27 28 29 30 31 31 31 32 32 32 31 31 30 30 30 29 28 27 26 26 26 27 28 29 31 30 28 26 28 31 31 30 30 33 34 33 31 29 29 30 33 34 32
9 8 7 6 6 8 9 9 9 9 10 11 13 14 14 14 15 17 18 20 21 23 25 26 27 27 27 27 27 28 28 29 29 30 31 32 33 33 35 36 36 37 37 36 35 35 34 33 33 32 31 32 34 35 37 39 39 37 36 35 35 35 34 33 33 34 34 32 29 28 29 32 33 33
6 6 6 5 7 9 9 9 10 12 13 14 15 16 17 18 18 20 21 23 25 26 27 28 28 27 26 27 28 29 30 30 30 31 31 32 33 33 34 36 37 38 38 39 39 39 38 37 38 38 37 37 38 40 42 44 45 46 44 41 39 38 38 36 34 35 36 35 33 31 30 31 32 32
4 5 5 6 7 8 10 11 13 14 15 16 17 18 19 20 21 22 23 25 27 28 27 27 27 26 27 28 28 28 29 30 30 31 31 31 33 33 34 35 36 36 36 37 38 38 38 37 38 38 39 39 41 42 43 45 47 48 49 47 43 42 40 38 35 35 36 38 38 36 33 31 32 32
4 5 7 8 9 10 12 13 14 16 17 18 19 19 21 21 22 24 24 24 26 27 27 27 27 28 28 28 28 28 29 30 31 32 33 33 34 35 35 36 36 36 36 37 38 38 38 37 37 38 38 38 39 39 41 43 44 46 48 49 47 45 43 42 40 37 36 36 38 39 37 34 33 33
8 9 10 11 12 13 14 15 16 17 18 19 19 20 21 22 23 24 24 25 26 27 27 27 28 29 29 29 29 30 31 32 32 34 35 35 36 37 38 38 38 38 38 39 39 40 40 40 40 40 40 40 39 38 38 40 42 43 44 46 47 47 46 45 44 43 41 40 39 39 39 37 36 36
12 12 13 13 14 15 16 17 18 18 18 19 21 22 23 24 24 26 27 27 28 29 29 30 31 32 32 32 32 32 33 34 34 34 36 36 36 37 38 38 39 39 40 40 42 42 42 42 43 43 43 43 42 41 41 42 43 42 43 45 46 47 47 47 46 47 47 47 45 43 41 40 39 39
15 15 16 16 16 17 19 19 20 21 21 22 24 25 26 27 28 29 30 30 31 32 33 33 33 33 33 35 37 37 37 37 37 37 38 38 38 38 39 39 40 41 40 40 41 42 43 43 44 44 44 44 43 42 42 42 42 42 45 47 48 48 48 47 46 46 47 50 50 48 46 44 42 41
Wind_Direction
248 248 250 243 235 236 234 229 231 241 257 276 299 316 322 326 331 332 328 330 334 336 338 328 315 314 316 318 322 326 328 329 332 335 337 339 340 342 345 347 348 346 345 345 347 359 13 18 24 29 30 28 26 24 22 20 19 21 26 29 31 33 34 35 37 39 42 45 47 56 66 67 66 72
251 252 252 248 241 241 243 242 242 246 258 270 281 292 300 305 311 315 316 317 317 321 327 321 306 302 302 304 309 314 316 319 323 326 328 331 334 336 338 340 341 339 339 340 341 352 6 12 17 22 26 27 25 23 21 18 14 12 14 21 25 28 30 32 34 34 37 39 41 43 49 62 64 45
249 255 258 255 248 246 246 247 249 253 260 270 277 283 287 290 293 298 303 302 304 313 319 315 305 300 297 296 300 303 306 310 314 318 320 323 327 329 331 333 333 332 333 334 333 341 356 2 7 11 16 20 21 20 19 16 12 8 5 8 15 22 25 28 29 29 31 33 36 38 37 42 54 50
244 251 257 259 255 251 248 249 253 257 264 271 277 281 283 284 285 289 293 294 298 307 311 309 308 304 299 301 302 303 305 308 310 312 313 315 318 322 323 325 327 327 327 326 323 327 340 349 355 358 1 7 11 13 14 13 11 5 1 359 1 8 15 21 24 24 26 27 30 32 32 30 30 37
239 244 248 255 257 254 251 252 257 262 268 274 279 283 285 285 286 286 288 291 296 303 306 305 308 306 304 308 309 308 310 311 310 309 310 312 313 313 315 319 322 322 322 321 317 317 324 332 339 343 346 349 353 358 3 6 7 3 357 353 351 353 359 7 14 18 20 22 24 25 27 27 18 8
236 240 241 245 252 253 252 254 258 263 268 272 278 284 287 288 290 290 291 293 297 303 306 307 309 309 309 314 317 316 317 316 313 313 313 313 312 311 314 318 320 320 319 317 313 311 314 318 324 329 332 334 335 339 344 350 357 359 354 347 343 341 343 349 357 4 10 15 18 19 20 20 16 3
237 242 243 241 245 249 247 248 253 258 263 266 270 275 281 286 291 294 296 299 301 304 307 311 314 314 313 315 319 319 319 321 322 325 325 322 321 319 317 318 318 319 319 315 311 310 310 310 313 317 321 322 322 324 328 332 338 346 349 344 336 331 329 331 338 345 353 1 7 11 12 12 10 4
237 242 245 242 242 247 248 249 255 261 264 267 270 272 277 283 288 291 293 299 303 304 308 314 318 319 318 320 323 324 325 328 331 336 337 334 332 328 321 320 317 315 315 314 310 308 306 305 305 307 309 311 310 312 317 321 323 328 336 338 332 325 320 318 319 325 333 341 348 355 0 2 1 357
238 244 249 251 252 254 258 259 263 267 269 272 276 279 283 286 287 288 289 293 297 300 307 314 319 323 325 325 327 330 331 332 334 336 336 335 334 328 323 321 318 312 310 310 309 307 305 302 301 301 302 303 305 307 310 314 315 317 322 327 326 319 314 311 308 307 313 322 328 334 341 348 351 348
244 248 252 258 262 265 269 271 272 273 276 279 284 287 288 287 285 285 287 290 294 299 305 311 315 319 321 321 323 327 329 330 330 329 327 326 325 322 319 315 314 312 309 306 306 305 304 303 302 301 302 302 303 305 307 309 310 311 312 315 315 312 306 303 302 299 299 304 310 314 318 327 337 340
253 254 255 257 262 267 272 275 277 279 281 284 286 288 290 287 283 282 282 283 289 297 301 305 309 311 312 316 320 321 322 324 326 327 326 322 319 318 316 312 309 308 306 305 305 303 302 302 302 302 303 304 304 304 306 306 306 306 305 303 302 302 299 296 294 293 293 294 298 301 302 303 314 326
256 258 260 261 264 268 270 271 274 277 281 284 285 286 287 284 279 275 274 275 282 291 295 298 302 303 305 309 313 314 316 319 322 325 325 323 321 318 314 311 310 308 306 306 305 304 302 301 300 301 302 305 307 307 307 306 304 301 298 297 296 296 294 292 289 288 288 290 292 294 293 291 294 305
252 253 256 260 262 264 265 265 266 269 272 276 279 280 278 277 274 269 268 272 278 284 288 292 296 299 302 306 309 311 313 317 321 321 321 321 321 318 312 306 307 307 306 304 301 301 303 301 300 300 302 306 309 310 308 306 303 300 298 297 296 295 294 291 287 283 283 285 288 291 291 286 284 289
244 245 249 254 256 257 259 261 261 262 264 267 270 272 271 271 272 271 271 273 278 283 286 289 294 297 297 301 306 308 311 316 319 319 319 319 318 317 311 304 302 304 306 304 299 298 302 302 300 300 302 305 307 307 307 306 304 302 300 299 300 298 296 292 287 282 278 280 283 287 289 286 281 283
246 247 250 254 257 258 261 264 265 263 263 263 264 266 266 267 270 272 275 277 279 284 287 288 291 293 293 295 300 304 308 312 312 312 314 315 315 316 313 308 305 303 304 304 300 299 302 302 300 300 299 300 300 299 299 301 303 303 302 301 301 300 298 294 290 283 277 276 278 283 287 286 280 279
258 259 261 262 264 265 265 266 268 266 263 261 261 261 262 263 266 270 274 278 281 284 287 288 289 291 293 294 296 299 302 303 303 304 306 308 310 310 310 310 307 304 303 304 302 300 300 300 299 298 298 297 295 294 294 295 297 300 302 301 299 298 298 297 294 288 280 275 276 279 282 284 281 277
258 259 260 260 261 261 260 261 263 262 261 260 260 262 264 265 269 273 277 281 284 286 288 289 290 291 293 293 293 295 297 297 298 300 302 303 304 304 306 307 307 304 303 304 303 300 300 301 299 297 297 297 295 293 293 291 290 290 293 296 296 296 298 298 296 291 284 278 276 277 279 281 280 276
253 254 256 256 257 258 258 259 261 262 264 266 267 270 272 275 277 279 281 284 285 286 286 286 287 288 289 289 290 291 291 291 293 295 296 297 298 299 301 302 303 302 301 301 302 301 301 302 300 298 298 299 297 294 292 290 286 283 283 287 291 294 296 296 295 292 286 282 278 278 279 279 278 274
253 254 255 256 258 260 262 263 265 267 270 271 272 274 277 281 283 283 285 286 286 286 286 286 286 286 286 285 286 286 286 285 286 287 289 290 291 294 297 298 300 301 301 300 300 300 301 302 301 300 302 302 298 294 292 289 284 279 277 280 284 287 290 293 293 290 286 283 280 279 279 277 276 273
257 258 259 261 263 265 266 269 271 272 272 272 274 278 283 287 288 289 289 289 286 284 284 284 284 285 285 284 283 283 284 283 283 283 283 285 288 291 294 296 298 301 303 301 300 300 299 301 301 301 302 302 299 296 293 291 287 281 277 277 279 280 282 285 287 285 282 280 280 280 278 276 273 271
260 263 264 266 268 268 268 269 271 273 273 274 276 281 285 288 291 293 294 293 290 287 286 285 285 286 286 286 285 284 283 284 283 281 280 282 286 289 291 293 295 297 298 298 298 297 296 298 301 301 300 299 298 296 295 293 291 287 282 279 278 277 277 278 280 280 278 276 275 276 275 274 271 269
263 265 267 268 270 271 272 272 273 274 275 276 278 281 284 287 290 293 293 292 291 291 290 290 289 289 290 290 290 289 287 285 283 281 281 283 285 285 286 289 292 294 295 296 296 295 295 298 300 299 300 300 298 298 297 296 295 294 291 287 283 279 277 276 277 277 276 274 272 272 271 270 269 267
263 265 266 268 269 271 273 274 275 276 277 279 280 282 284 286 288 289 288 288 289 290 290 289 289 289 289 289 291 292 290 287 284 282 283 283 282 283 284 287 288 289 291 294 293 293 296 298 297 296 299 300 299 299 300 299 298 297 295 294 292 288 284 280 277 276 275 274 272 271 269 268 267 267
261 261 263 266 268 271 274 276 278 279 280 280 281 282 284 285 286 287 287 288 289 289 288 288 287 287 287 287 289 290 290 289 287 285 283 282 280 280 281 281 281 282 285 289 290 292 294 293 289 289 291 292 293 296 298 298 298 297 295 294 295 294 292 289 284 279 275 273 272 271 270 268 267 268
260 261 263 267 270 273 275 276 277 278 279 280 282 283 284 285 285 286 288 289 289 288 288 289 288 289 289 290 290 290 290 291 291 288 285 283 281 278 277 277 276 277 280 284 285 288 291 289 285 284 284 284 286 291 294 295 296 296 295 294 293 293 293 293 292 289 284 278 273 270 269 268 266 266
266 267 269 271 274 275 275 274 274 276 278 281 282 282 283 283 284 286 289 290 291 291 291 292 292 294 294 294 294 292 292 293 292 289 285 282 279 278 278 277 276 277 280 280 279 282 284 285 284 284 283 283 285 288 290 291 294 296 297 296 295 295 293 290 289 290 289 286 282 276 270 267 265 264
271 273 272 273 275 275 274 274 276 279 281 283 284 284 284 284 285 287 289 291 292 293 295 296 296 298 298 298 297 295 294 293 291 289 287 286 285 285 285 284 282 282 283 281 279 279 280 281 282 283 283 285 287 288 287 289 291 293 293 293 292 294 294 291 288 287 287 287 287 284 277 271 267 264
269 271 271 273 276 277 278 279 280 281 284 287 289 290 289 289 289 290 291 292 293 294 296 297 298 299 299 298 297 296 295 293 291 290 289 288 288 289 289 290 289 289 289 288 285 283 281 280 282 283 284 285 287 288 287 288 289 290 290 290 289 288 287 287 288 289 287 285 285 286 284 279 274 268
271 274 276 279 281 283 284 283 283 284 286 288 288 290 291 291 291 291 291 292 292 294 295 296 297 297 297 296 295 295 296 295 294 293 293 292 291 290 290 290 291 291 292 292 292 290 286 284 286 286 286 285 285 284 285 286 286 287 288 290 291 289 286 284 287 290 290 287 287 287 286 285 281 276
284 284 284 284 285 286 286 285 285 286 284 282 282 285 288 289 290 290 290 291 292 293 294 294 295 296 296 295 296 297 298 298 298 299 299 300 299 297 295 292 291 293 293 293 295 296 292 288 289 289 287 285 284 284 284 285 285 286 287 287 289 292 293 291 288 286 289 293 294 290 288 288 285 280
289 289 290 290 290 289 288 288 288 286 283 281 281 284 287 289 290 289 290 292 293 294 295 295 296 297 298 300 301 304 306 307 307 308 309 309 308 306 303 298 296 298 297 295 297 298 295 292 290 288 289 288 286 284 285 286 285 285 285 286 288 291 294 294 289 284 288 295 296 291 290 291 287 281
288 290 292 292 292 292 292 293 293 292 290 289 289 288 289 290 291 291 293 296 296 293 293 296 299 302 305 308 309 311 311 311 312 313 312 312 313 313 312 309 306 306 305 302 301 299 296 294 291 288 288 289 287 286 285 283 283 284 285 287 289 290 292 293 292 290 290 291 292 293 294 294 291 285
291 293 294 296 298 299 301 302 302 299 296 295 295 293 291 292 294 297 297 294 290 289 291 297 302 305 306 306 305 308 310 312 314 313 310 309 310 310 311 311 310 310 312 312 311 307 302 301 300 297 294 291 290 290 289 286 285 286 287 289 290 291 291 291 290 289 286 284 286 291 293 293 293 291
296 299 302 304 305 307 309 310 308 304 301 302 303 302 302 301 301 300 294 290 296 306 307 304 302 301 300 298 297 299 303 307 312 315 315 315 312 309 310 311 309 308 310 311 310 309 306 305 305 301 297 293 290 290 292 294 297 298 298 297 297 294 292 290 289 287 284 282 284 286 287 289 291 290
306 308 311 312 313 315 318 316 312 311 314 316 316 318 319 313 308 305 298 295 303 312 311 305 301 298 298 300 299 299 301 303 305 306 308 310 310 310 312 313 311 311 313 312 310 309 308 307 305 302 299 298 297 295 297 301 304 305 304 303 302 299 294 294 294 290 286 285 285 284 283 286 287 287
309 310 312 314 317 319 321 320 318 318 320 318 314 307 295 290 298 307 308 306 308 311 310 310 310 306 303 303 300 298 300 301 301 302 302 303 306 310 313 310 306 306 309 311 312 313 314 313 311 307 305 305 305 304 304 305 306 304 301 300 300 299 298 299 299 296 291 288 286 283 280 282 284 285
307 306 306 307 310 314 317 315 310 309 307 297 285 276 272 276 290 299 302 304 305 306 306 309 311 310 309 309 306 302 300 299 298 299 300 300 302 305 307 306 303 302 304 303 303 307 312 313 313 313 311 309 307 305 303 301 298 298 299 300 299 298 300 300 299 298 297 293 290 287 283 281 281 282
304 303 304 309 314 309 298 287 283 285 281 269 263 267 276 284 289 293 295 296 296 297 298 300 302 302 305 308 308 307 304 301 299 298 298 298 299 299 300 300 300 300 301 300 298 300 304 306 308 311 312 309 307 306 306 302 294 287 289 295 296 296 298 298 297 298 299 298 294 291 288 284 282 280
300 302 306 306 296 284 277 273 273 273 270 270 272 277 281 283 285 288 290 291 294 296 298 298 298 298 300 303 305 305 305 303 302 301 300 300 300 300 300 300 299 298 298 297 296 296 298 299 301 304 305 304 302 303 306 305 298 290 289 292 293 293 295 294 292 293 294 294 292 291 290 289 287 283
294 292 284 271 270 272 272 270 268 264 264 268 273 275 276 279 283 286 288 292 296 298 299 298 297 297 298 299 301 301 301 301 301 301 302 302 302 302 302 301 301 301 300 299 296 295 295 296 297 298 299 299 299 299 300 300 297 293 293 295 295 295 296 295 292 290 289 289 291 291 290 290 290 288
296 286 275 270 273 275 274 273 272 270 271 272 274 276 278 280 284 288 292 295 298 299 299 300 299 298 298 298 298 298 298 299 299 300 301 301 301 301 301 302 303 303 303 302 300 298 297 297 297 296 296 296 296 296 296 297 296 296 297 298 298 297 297 296 294 291 288 289 291 291 288 286 287 288
288 284 279 277 274 272 273 273 273 275 277 278 280 284 286 289 292 295 298 300 301 302 304 305 305 304 303 302 302 301 300 299 299 299 299 299 299 299 299 300 301 302 301 301 299 298 298 298 299 299 299 298 298 298 297 297 297 298 298 299 300 299 299 298 297 295 291 289 290 289 286 284 282 282
271 273 274 277 277 277 278 279 279 281 284 286 288 290 293 296 299 300 302 303 304 305 306 306 305 305 305 304 303 302 301 301 300 299 298 298 298 298 297 298 298 298 299 299 298 297 298 299 300 302 303 303 303 302 300 299 299 298 298 298 299 299 298 298 297 296 294 291 288 286 285 282 278 275
276 278 279 281 284 285 286 289 291 293 295 296 297 298 299 300 301 300 301 302 302 302 302 301 301 301 301 300 300 299 299 299 299 298 298 298 297 297 297 297 297 298 298 299 299 298 298 299 300 302 303 302 302 302 301 300 300 299 298 297 297 297 298 298 298 297 296 294 291 290 290 287 282 278
278 280 283 285 287 288 289 291 291 292 293 296 298 298 298 298 298 298 299 299 299 300 300 300 299 299 298 298 298 297 296 296 296 296 296 297 297 297 297 296 297 297 298 298 299 299 299 299 300 301 302 303 303 302 301 300 300 299 299 299 299 299 299 299 297 296 296 294 292 292 293 293 291 287